Location: North Evanston
(42.0634°N, 87.6976°W)
Time: 14:36:10
(UTC+00:00)

Injun/Solrad 3 - Pass Details

Date: 10 May 2026
Orbit: 867 x 989 km, 66.8° (Epoch: 7 June)

Event Time Altitude Azimuth Distance (km) Brightness Sun altitude
Rises 21:31:31 0° 184° (S) 3,484 11.0 36.8°
Reaches altitude 10° 21:34:07 10° 177° (S) 2,565 10.4 36.3°
Maximum altitude 21:39:34 38° 110° (ESE) 1,359 8.7 35.3°
Drops below altitude 10° 21:45:12 10° 44° (NE) 2,658 10.0 34.3°
Sets 21:47:56 0° 37° (NE) 3,626 10.6 33.8°
